| time (UTC) | temp C | wind direction | speed KPH | gust KPH | rain 1hr cm | rain 24hr cm | rain mn cm | humidity % | barometer mb |
| 20260510195114 | 15 | 138 | 3.2 | 6.4 | 0.00 | 0.00 | 0.00 | 72 | 1021.6 |
| 20260510194613 | 14 | 277 | 0.0 | 4.8 | 0.00 | 0.00 | 0.00 | 73 | 1021.6 |
| 20260510194111 | 14 | 110 | 0.0 | 1.6 | 0.00 | 0.00 | 0.00 | 74 | 1021.6 |
| 20260510193611 | 13 | 105 | 0.0 | 3.2 | 0.00 | 0.00 | 0.00 | 75 | 1021.6 |
| 20260510193107 | 13 | 197 | 1.6 | 1.6 | 0.00 | 0.00 | 0.00 | 75 | 1021.6 |
| 20260510192601 | 13 | 106 | 0.0 | 1.6 | 0.00 | 0.00 | 0.00 | 76 | 1021.3 |
| 20260510192057 | 13 | 95 | 0.0 | 1.6 | 0.00 | 0.00 | 0.00 | 76 | 1021.3 |
| 20260510191554 | 13 | 108 | 0.0 | 6.4 | 0.00 | 0.00 | 0.00 | 77 | 1021.6 |
| 20260510191050 | 13 | 342 | 1.6 | 1.6 | 0.00 | 0.00 | 0.00 | 76 | 1021.3 |
| 20260510190542 | 13 | 215 | 1.6 | 3.2 | 0.00 | 0.00 | 0.00 | 77 | 1021.3 |
| 20260510190040 | 13 | 109 | 1.6 | 3.2 | 0.00 | 0.00 | 0.00 | 77 | 1021.3 |
| 20260510185536 | 13 | 172 | 1.6 | 3.2 | 0.00 | 0.00 | 0.00 | 78 | 1021.3 |
| 20260510185034 | 13 | 103 | 0.0 | 9.7 | 0.00 | 0.00 | 0.00 | 78 | 1021.3 |
| 20260510184531 | 13 | 170 | 0.0 | 3.2 | 0.00 | 0.00 | 0.00 | 78 | 1021.3 |
| 20260510184026 | 13 | 116 | 0.0 | 0.0 | 0.00 | 0.00 | 0.00 | 77 | 1021.3 |
| 20260510183522 | 13 | 8 | 1.6 | 3.2 | 0.00 | 0.00 | 0.00 | 77 | 1021.3 |
| 20260510183017 | 13 | 82 | 1.6 | 3.2 | 0.00 | 0.00 | 0.00 | 77 | 1021.3 |
| 20260510182514 | 13 | 215 | 3.2 | 4.8 | 0.00 | 0.00 | 0.00 | 76 | 1021.3 |
| 20260510182009 | 13 | 217 | 1.6 | 1.6 | 0.00 | 0.00 | 0.00 | 75 | 1021.3 |
| 20260510181508 | 13 | 112 | 0.0 | 1.6 | 0.00 | 0.00 | 0.00 | 75 | 1020.9 |
| 20260510181003 | 13 | 318 | 1.6 | 4.8 | 0.00 | 0.00 | 0.00 | 75 | 1020.6 |
| 20260510180500 | 13 | 122 | 1.6 | 6.4 | 0.00 | 0.00 | 0.00 | 75 | 1020.9 |
| 20260510175957 | 13 | 181 | 3.2 | 4.8 | 0.00 | 0.00 | 0.00 | 74 | 1020.6 |
| 20260510175453 | 13 | 66 | 1.6 | 4.8 | 0.00 | 0.00 | 0.00 | 73 | 1020.6 |
| 20260510174948 | 15 | 326 | 3.2 | 4.8 | 0.00 | 0.00 | 0.00 | 68 | 1020.6 |
| 20260510174447 | 15 | 113 | 0.0 | 1.6 | 0.00 | 0.00 | 0.00 | 67 | 1020.6 |
| 20260510173944 | 15 | 91 | 0.0 | 6.4 | 0.00 | 0.00 | 0.00 | 66 | 1020.2 |
| 20260510173439 | 15 | 145 | 1.6 | 3.2 | 0.00 | 0.00 | 0.00 | 67 | 1020.2 |
| 20260510172936 | 15 | 134 | 0.0 | 3.2 | 0.00 | 0.00 | 0.00 | 69 | 1019.9 |
| 20260510172432 | 15 | 104 | 4.8 | 6.4 | 0.00 | 0.00 | 0.00 | 69 | 1019.9 |
| 20260510171928 | 14 | 161 | 1.6 | 3.2 | 0.00 | 0.00 | 0.00 | 71 | 1020.2 |
| 20260510171425 | 13 | 321 | 0.0 | 4.8 | 0.00 | 0.00 | 0.00 | 71 | 1020.2 |
| 20260510170922 | 13 | 317 | 1.6 | 3.2 | 0.00 | 0.00 | 0.00 | 71 | 1020.2 |
| 20260510170419 | 13 | 199 | 9.7 | 12.9 | 0.00 | 0.00 | 0.00 | 71 | 1020.2 |
| 20260510165914 | 13 | 60 | 0.0 | 4.8 | 0.00 | 0.00 | 0.00 | 72 | 1020.2 |
| 20260510165410 | 13 | 118 | 1.6 | 9.7 | 0.00 | 0.00 | 0.00 | 74 | 1020.2 |
| 20260510164908 | 13 | 116 | 1.6 | 3.2 | 0.00 | 0.00 | 0.00 | 73 | 1019.9 |
| 20260510164405 | 13 | 277 | 1.6 | 11.3 | 0.00 | 0.00 | 0.00 | 73 | 1019.9 |
| 20260510163904 | 13 | 96 | 1.6 | 4.8 | 0.00 | 0.00 | 0.00 | 74 | 1019.9 |
| 20260510163356 | 13 | 111 | 1.6 | 6.4 | 0.00 | 0.00 | 0.00 | 74 | 1019.9 |
| 20260510162855 | 13 | 101 | 1.6 | 4.8 | 0.00 | 0.00 | 0.00 | 75 | 1019.9 |
| 20260510162354 | 12 | 132 | 1.6 | 3.2 | 0.00 | 0.00 | 0.00 | 77 | 1019.9 |
| 20260510161848 | 12 | 179 | 3.2 | 4.8 | 0.00 | 0.00 | 0.00 | 77 | 1019.9 |
| 20260510161345 | 12 | 315 | 6.4 | 14.5 | 0.00 | 0.00 | 0.00 | 77 | 1020.2 |
| 20260510160842 | 12 | 279 | 3.2 | 9.7 | 0.00 | 0.00 | 0.00 | 76 | 1019.9 |
| 20260510160338 | 12 | 250 | 3.2 | 4.8 | 0.00 | 0.00 | 0.00 | 76 | 1019.9 |
| 20260510155832 | 12 | 210 | 3.2 | 9.7 | 0.00 | 0.00 | 0.00 | 77 | 1019.6 |
| 20260510155330 | 12 | 334 | 6.4 | 9.7 | 0.00 | 0.00 | 0.00 | 76 | 1019.6 |
| 20260510154825 | 12 | 136 | 1.6 | 3.2 | 0.00 | 0.00 | 0.00 | 76 | 1019.9 |
| 20260510154322 | 12 | 193 | 1.6 | 4.8 | 0.00 | 0.00 | 0.00 | 76 | 1019.6 |
| 20260510153816 | 12 | 226 | 1.6 | 11.3 | 0.00 | 0.00 | 0.00 | 76 | 1019.6 |
| 20260510153312 | 12 | 353 | 3.2 | 6.4 | 0.00 | 0.00 | 0.00 | 76 | 1019.6 |
| 20260510152809 | 12 | 183 | 4.8 | 6.4 | 0.00 | 0.00 | 0.00 | 75 | 1019.6 |
| 20260510152307 | 12 | 125 | 1.6 | 3.2 | 0.00 | 0.00 | 0.00 | 76 | 1019.6 |
| 20260510151802 | 11 | 176 | 1.6 | 3.2 | 0.00 | 0.00 | 0.00 | 76 | 1019.6 |
| 20260510151300 | 12 | 43 | 1.6 | 4.8 | 0.00 | 0.00 | 0.00 | 75 | 1019.6 |
| 20260510150756 | 12 | 160 | 1.6 | 1.6 | 0.00 | 0.00 | 0.00 | 75 | 1019.6 |
| 20260510150252 | 12 | 91 | 0.0 | 3.2 | 0.00 | 0.00 | 0.00 | 74 | 1019.6 |
| 20260510145748 | 12 | 102 | 1.6 | 4.8 | 0.00 | 0.00 | 0.00 | 75 | 1019.6 |
| 20260510145245 | 11 | 137 | 0.0 | 3.2 | 0.00 | 0.00 | 0.00 | 74 | 1019.6 |
| 20260510144741 | 11 | 274 | 3.2 | 6.4 | 0.00 | 0.00 | 0.00 | 75 | 1019.6 |
| 20260510144238 | 11 | 247 | 0.0 | 6.4 | 0.00 | 0.00 | 0.00 | 75 | 1019.6 |
| 20260510143738 | 11 | 112 | 0.0 | 4.8 | 0.00 | 0.00 | 0.00 | 75 | 1019.6 |
| 20260510143234 | 11 | 103 | 0.0 | 4.8 | 0.00 | 0.00 | 0.00 | 75 | 1019.6 |
| 20260510142731 | 11 | 129 | 0.0 | 3.2 | 0.00 | 0.00 | 0.00 | 76 | 1019.6 |
| 20260510142228 | 11 | 117 | 0.0 | 3.2 | 0.00 | 0.00 | 0.00 | 77 | 1019.6 |
| 20260510141725 | 11 | 221 | 1.6 | 3.2 | 0.00 | 0.00 | 0.00 | 76 | 1019.6 |
| 20260510141223 | 11 | 136 | 0.0 | 6.4 | 0.00 | 0.00 | 0.00 | 76 | 1019.6 |
| 20260510140719 | 11 | 352 | 1.6 | 1.6 | 0.00 | 0.00 | 0.00 | 77 | 1019.2 |
| 20260510140214 | 11 | 98 | 3.2 | 4.8 | 0.00 | 0.00 | 0.00 | 77 | 1019.2 |
| 20260510135709 | 11 | 89 | 0.0 | 6.4 | 0.00 | 0.00 | 0.00 | 77 | 1019.2 |
| 20260510135205 | 11 | 63 | 1.6 | 3.2 | 0.00 | 0.00 | 0.00 | 78 | 1019.6 |
| 20260510134702 | 11 | 228 | 1.6 | 9.7 | 0.00 | 0.00 | 0.00 | 78 | 1019.6 |
| 20260510134159 | 11 | 208 | 1.6 | 4.8 | 0.00 | 0.00 | 0.00 | 78 | 1019.6 |
| 20260510133655 | 11 | 119 | 0.0 | 1.6 | 0.00 | 0.00 | 0.00 | 79 | 1019.6 |
| 20260510133151 | 11 | 39 | 3.2 | 4.8 | 0.00 | 0.00 | 0.00 | 79 | 1018.9 |
| 20260510132647 | 11 | 212 | 1.6 | 4.8 | 0.00 | 0.00 | 0.00 | 79 | 1018.9 |
| 20260510132145 | 11 | 275 | 1.6 | 4.8 | 0.00 | 0.00 | 0.00 | 79 | 1019.6 |
| 20260510131642 | 10 | 78 | 1.6 | 6.4 | 0.00 | 0.00 | 0.00 | 79 | 1019.6 |
| 20260510131139 | 10 | 111 | 1.6 | 4.8 | 0.00 | 0.00 | 0.00 | 79 | 1019.6 |
| 20260510130636 | 10 | 9 | 3.2 | 4.8 | 0.00 | 0.00 | 0.00 | 79 | 1019.2 |
| 20260510130133 | 10 | 262 | 4.8 | 4.8 | 0.00 | 0.00 | 0.00 | 79 | 1019.2 |
| 20260510125629 | 10 | 201 | 1.6 | 12.9 | 0.00 | 0.00 | 0.00 | 78 | 1019.2 |
| 20260510125126 | 10 | 53 | 3.2 | 3.2 | 0.00 | 0.00 | 0.00 | 79 | 1019.2 |
| 20260510124623 | 10 | 120 | 3.2 | 9.7 | 0.00 | 0.00 | 0.00 | 79 | 1018.9 |
| 20260510124119 | 10 | 76 | 1.6 | 4.8 | 0.00 | 0.00 | 0.00 | 79 | 1019.2 |
| 20260510123615 | 10 | 118 | 0.0 | 3.2 | 0.00 | 0.00 | 0.00 | 79 | 1019.2 |
| 20260510123111 | 10 | 66 | 0.0 | 4.8 | 0.00 | 0.00 | 0.00 | 79 | 1018.9 |
| 20260510122607 | 10 | 17 | 1.6 | 12.9 | 0.00 | 0.00 | 0.00 | 79 | 1018.9 |
| 20260510122103 | 10 | 95 | 0.0 | 1.6 | 0.00 | 0.00 | 0.00 | 79 | 1018.9 |
| 20260510121601 | 10 | 76 | 1.6 | 3.2 | 0.00 | 0.00 | 0.00 | 79 | 1018.9 |
| 20260510121057 | 10 | 202 | 0.0 | 1.6 | 0.00 | 0.00 | 0.00 | 79 | 1018.9 |
| 20260510120555 | 10 | 85 | 1.6 | 4.8 | 0.00 | 0.00 | 0.00 | 79 | 1018.9 |
| 20260510120050 | 10 | 110 | 1.6 | 1.6 | 0.00 | 0.00 | 0.00 | 79 | 1019.2 |
| 20260510115547 | 10 | 261 | 3.2 | 4.8 | 0.00 | 0.00 | 0.00 | 79 | 1019.2 |
| 20260510115044 | 10 | 83 | 0.0 | 9.7 | 0.00 | 0.00 | 0.00 | 79 | 1019.2 |
| 20260510114540 | 10 | 343 | 3.2 | 6.4 | 0.00 | 0.00 | 0.00 | 79 | 1018.9 |
| 20260510114036 | 10 | 307 | 3.2 | 9.7 | 0.00 | 0.00 | 0.00 | 80 | 1018.9 |
| 20260510113531 | 10 | 17 | 1.6 | 6.4 | 0.00 | 0.00 | 0.00 | 79 | 1018.9 |
| 20260510113030 | 10 | 115 | 3.2 | 14.5 | 0.00 | 0.00 | 0.00 | 79 | 1018.9 |
| 20260510112526 | 10 | 89 | 1.6 | 9.7 | 0.00 | 0.00 | 0.00 | 80 | 1018.9 |
| 20260510112022 | 10 | 41 | 1.6 | 6.4 | 0.00 | 0.00 | 0.00 | 80 | 1018.9 |
| 20260510111519 | 10 | 337 | 1.6 | 9.7 | 0.00 | 0.00 | 0.00 | 80 | 1018.9 |
| 20260510111015 | 10 | 98 | 3.2 | 4.8 | 0.00 | 0.00 | 0.00 | 80 | 1018.9 |
| 20260510110511 | 10 | 101 | 1.6 | 9.7 | 0.00 | 0.00 | 0.00 | 80 | 1018.5 |
| 20260510110008 | 10 | 341 | 1.6 | 12.9 | 0.00 | 0.00 | 0.00 | 80 | 1018.9 |
| 20260510105503 | 10 | 313 | 6.4 | 14.5 | 0.00 | 0.00 | 0.00 | 80 | 1018.9 |
| 20260510104958 | 10 | 106 | 1.6 | 6.4 | 0.00 | 0.00 | 0.00 | 80 | 1018.9 |
| 20260510104455 | 10 | 40 | 3.2 | 4.8 | 0.00 | 0.00 | 0.00 | 81 | 1018.9 |
| 20260510103951 | 10 | 97 | 0.0 | 3.2 | 0.00 | 0.00 | 0.00 | 81 | 1018.9 |
| 20260510103449 | 10 | 16 | 1.6 | 6.4 | 0.00 | 0.00 | 0.00 | 81 | 1018.5 |
| 20260510102944 | 10 | 283 | 3.2 | 4.8 | 0.00 | 0.00 | 0.00 | 82 | 1018.5 |
| 20260510102440 | 10 | 34 | 0.0 | 3.2 | 0.00 | 0.00 | 0.00 | 81 | 1018.5 |
| 20260510101937 | 10 | 12 | 1.6 | 3.2 | 0.00 | 0.00 | 0.00 | 81 | 1018.5 |
| 20260510101435 | 10 | 91 | 1.6 | 3.2 | 0.00 | 0.00 | 0.00 | 81 | 1018.9 |
| 20260510100933 | 10 | 51 | 3.2 | 11.3 | 0.00 | 0.00 | 0.00 | 81 | 1018.5 |
| 20260510100429 | 10 | 351 | 4.8 | 9.7 | 0.00 | 0.00 | 0.00 | 81 | 1018.5 |
| 20260510095925 | 10 | 101 | 1.6 | 3.2 | 0.00 | 0.00 | 0.00 | 81 | 1018.9 |
| 20260510095421 | 10 | 32 | 3.2 | 11.3 | 0.00 | 0.00 | 0.00 | 81 | 1018.9 |
| 20260510094920 | 10 | 221 | 4.8 | 6.4 | 0.00 | 0.00 | 0.00 | 81 | 1018.9 |
| 20260510094415 | 10 | 352 | 3.2 | 4.8 | 0.00 | 0.00 | 0.00 | 81 | 1018.9 |
| 20260510093911 | 10 | 312 | 1.6 | 3.2 | 0.00 | 0.00 | 0.00 | 81 | 1018.9 |
| 20260510093407 | 10 | 225 | 1.6 | 6.4 | 0.00 | 0.00 | 0.00 | 81 | 1018.9 |
| 20260510092904 | 10 | 268 | 4.8 | 9.7 | 0.00 | 0.00 | 0.00 | 81 | 1018.9 |
| 20260510092401 | 10 | 315 | 0.0 | 4.8 | 0.00 | 0.00 | 0.00 | 81 | 1018.9 |
| 20260510091855 | 11 | 68 | 3.2 | 3.2 | 0.00 | 0.00 | 0.00 | 81 | 1018.9 |
| 20260510091353 | 11 | 61 | 1.6 | 11.3 | 0.00 | 0.00 | 0.00 | 80 | 1018.9 |
| 20260510090849 | 11 | 73 | 3.2 | 4.8 | 0.00 | 0.00 | 0.00 | 81 | 1018.9 |
| 20260510090346 | 11 | 211 | 1.6 | 6.4 | 0.00 | 0.00 | 0.00 | 81 | 1018.5 |
| 20260510085841 | 11 | 304 | 1.6 | 6.4 | 0.00 | 0.00 | 0.00 | 81 | 1018.9 |
| 20260510085336 | 11 | 336 | 3.2 | 6.4 | 0.00 | 0.00 | 0.00 | 81 | 1018.5 |
| 20260510084832 | 11 | 12 | 1.6 | 4.8 | 0.00 | 0.00 | 0.00 | 81 | 1018.9 |
| 20260510084330 | 11 | 85 | 1.6 | 6.4 | 0.00 | 0.00 | 0.00 | 81 | 1018.9 |
| 20260510083826 | 11 | 316 | 3.2 | 4.8 | 0.00 | 0.00 | 0.00 | 81 | 1018.9 |
| 20260510083323 | 11 | 15 | 1.6 | 9.7 | 0.00 | 0.00 | 0.00 | 81 | 1018.9 |
| 20260510082818 | 11 | 134 | 1.6 | 3.2 | 0.00 | 0.00 | 0.00 | 82 | 1018.5 |
| 20260510082316 | 11 | 358 | 6.4 | 6.4 | 0.00 | 0.00 | 0.00 | 82 | 1018.5 |
| 20260510081815 | 11 | 59 | 4.8 | 9.7 | 0.00 | 0.00 | 0.00 | 82 | 1018.5 |
| 20260510081310 | 11 | 114 | 1.6 | 9.7 | 0.00 | 0.00 | 0.00 | 83 | 1018.5 |
| 20260510080807 | 11 | 88 | 3.2 | 3.2 | 0.00 | 0.00 | 0.00 | 83 | 1018.9 |
| 20260510080302 | 11 | 337 | 3.2 | 12.9 | 0.00 | 0.00 | 0.00 | 83 | 1018.5 |
| 20260510075759 | 11 | 101 | 1.6 | 4.8 | 0.00 | 0.00 | 0.00 | 83 | 1018.9 |
| 20260510075256 | 11 | 88 | 1.6 | 9.7 | 0.00 | 0.00 | 0.00 | 83 | 1018.5 |
| 20260510074753 | 11 | 359 | 3.2 | 4.8 | 0.00 | 0.00 | 0.00 | 83 | 1018.5 |
| 20260510074250 | 11 | 53 | 1.6 | 1.6 | 0.00 | 0.00 | 0.00 | 83 | 1018.5 |
| 20260510073746 | 11 | 20 | 1.6 | 6.4 | 0.00 | 0.00 | 0.00 | 82 | 1018.9 |
| 20260510073242 | 11 | 129 | 0.0 | 14.5 | 0.00 | 0.00 | 0.00 | 82 | 1018.5 |
| 20260510072737 | 11 | 273 | 9.7 | 14.5 | 0.00 | 0.00 | 0.00 | 82 | 1018.9 |
| 20260510072235 | 11 | 69 | 1.6 | 4.8 | 0.00 | 0.00 | 0.00 | 82 | 1018.9 |
| 20260510071731 | 11 | 70 | 3.2 | 12.9 | 0.00 | 0.00 | 0.00 | 82 | 1018.9 |
| 20260510071228 | 11 | 82 | 0.0 | 6.4 | 0.00 | 0.00 | 0.00 | 82 | 1018.9 |
| 20260510070726 | 11 | 4 | 1.6 | 4.8 | 0.00 | 0.00 | 0.00 | 82 | 1018.9 |
| 20260510070223 | 11 | 1 | 4.8 | 6.4 | 0.00 | 0.00 | 0.00 | 82 | 1018.9 |
| 20260510065718 | 11 | 72 | 3.2 | 6.4 | 0.00 | 0.00 | 0.00 | 82 | 1018.9 |
| 20260510065215 | 11 | 78 | 1.6 | 4.8 | 0.00 | 0.00 | 0.00 | 81 | 1018.9 |
| 20260510064711 | 11 | 207 | 1.6 | 4.8 | 0.00 | 0.00 | 0.00 | 81 | 1018.9 |
| 20260510064209 | 11 | 126 | 1.6 | 4.8 | 0.00 | 0.00 | 0.00 | 81 | 1018.9 |
| 20260510063705 | 11 | 338 | 4.8 | 6.4 | 0.00 | 0.00 | 0.00 | 81 | 1018.9 |
| 20260510063201 | 11 | 116 | 0.0 | 1.6 | 0.00 | 0.00 | 0.00 | 82 | 1018.9 |
| 20260510062658 | 11 | 99 | 0.0 | 6.4 | 0.00 | 0.00 | 0.00 | 82 | 1018.9 |
| 20260510062154 | 11 | 288 | 4.8 | 6.4 | 0.00 | 0.00 | 0.00 | 82 | 1018.9 |
| 20260510061649 | 11 | 79 | 0.0 | 1.6 | 0.00 | 0.00 | 0.00 | 82 | 1018.5 |
| 20260510061147 | 11 | 186 | 1.6 | 3.2 | 0.00 | 0.00 | 0.00 | 82 | 1018.9 |
| 20260510060643 | 11 | 268 | 3.2 | 6.4 | 0.00 | 0.00 | 0.00 | 82 | 1018.9 |
| 20260510060140 | 11 | 53 | 1.6 | 3.2 | 0.00 | 0.00 | 0.00 | 82 | 1018.9 |
| 20260510055636 | 11 | 110 | 0.0 | 3.2 | 0.00 | 0.00 | 0.00 | 82 | 1018.9 |
| 20260510055134 | 11 | 105 | 1.6 | 6.4 | 0.00 | 0.00 | 0.00 | 82 | 1018.9 |
| 20260510054630 | 11 | 292 | 3.2 | 4.8 | 0.00 | 0.00 | 0.00 | 82 | 1018.9 |
| 20260510054125 | 11 | 73 | 1.6 | 3.2 | 0.00 | 0.00 | 0.00 | 82 | 1018.9 |
| 20260510053625 | 11 | 240 | 1.6 | 6.4 | 0.00 | 0.00 | 0.00 | 82 | 1018.9 |
| 20260510053121 | 11 | 112 | 0.0 | 3.2 | 0.00 | 0.00 | 0.00 | 82 | 1018.9 |
| 20260510052617 | 11 | 79 | 3.2 | 4.8 | 0.00 | 0.00 | 0.00 | 83 | 1018.9 |
| 20260510052114 | 11 | 97 | 1.6 | 4.8 | 0.00 | 0.00 | 0.00 | 83 | 1018.9 |
| 20260510051609 | 11 | 170 | 3.2 | 9.7 | 0.00 | 0.00 | 0.00 | 82 | 1019.2 |
| 20260510051106 | 11 | 94 | 0.0 | 6.4 | 0.00 | 0.00 | 0.00 | 82 | 1019.2 |
| 20260510050604 | 11 | 12 | 3.2 | 4.8 | 0.00 | 0.00 | 0.00 | 82 | 1019.2 |
| 20260510050100 | 11 | 58 | 1.6 | 4.8 | 0.00 | 0.00 | 0.00 | 82 | 1018.9 |
| 20260510045558 | 11 | 13 | 3.2 | 3.2 | 0.00 | 0.00 | 0.00 | 82 | 1019.2 |
| 20260510045053 | 11 | 321 | 0.0 | 3.2 | 0.00 | 0.00 | 0.00 | 81 | 1019.2 |
| 20260510044550 | 12 | 345 | 1.6 | 11.3 | 0.00 | 0.00 | 0.00 | 80 | 1019.2 |
| 20260510044048 | 12 | 72 | 1.6 | 9.7 | 0.00 | 0.00 | 0.00 | 79 | 1018.9 |
| 20260510043543 | 13 | 59 | 3.2 | 6.4 | 0.00 | 0.00 | 0.00 | 75 | 1019.2 |
| 20260510043039 | 12 | 61 | 1.6 | 3.2 | 0.00 | 0.00 | 0.00 | 75 | 1019.2 |
| 20260510042533 | 12 | 137 | 0.0 | 0.0 | 0.00 | 0.00 | 0.00 | 78 | 1019.2 |
| 20260510042028 | 13 | 120 | 0.0 | 0.0 | 0.00 | 0.00 | 0.00 | 77 | 1019.2 |
| 20260510041526 | 13 | 125 | 0.0 | 0.0 | 0.00 | 0.00 | 0.00 | 77 | 1019.2 |
| 20260510041023 | 13 | 116 | 0.0 | 0.0 | 0.00 | 0.00 | 0.00 | 75 | 1018.9 |
| 20260510040520 | 13 | 125 | 0.0 | 0.0 | 0.00 | 0.00 | 0.00 | 74 | 1018.9 |
| 20260510040015 | 14 | 111 | 0.0 | 0.0 | 0.00 | 0.00 | 0.00 | 73 | 1018.9 |
| 20260510035512 | 14 | 112 | 0.0 | 0.0 | 0.00 | 0.00 | 0.00 | 72 | 1018.9 |
| 20260510035011 | 15 | 115 | 0.0 | 0.0 | 0.00 | 0.00 | 0.00 | 71 | 1018.9 |
| 20260510034510 | 15 | 115 | 0.0 | 0.0 | 0.00 | 0.00 | 0.00 | 70 | 1018.9 |
| 20260510034006 | 15 | 114 | 0.0 | 0.0 | 0.00 | 0.00 | 0.00 | 70 | 1018.9 |
| 20260510033502 | 15 | 114 | 0.0 | 0.0 | 0.00 | 0.00 | 0.00 | 68 | 1018.9 |
| 20260510033000 | 15 | 118 | 0.0 | 0.0 | 0.00 | 0.00 | 0.00 | 68 | 1018.9 |
| 20260510032456 | 16 | 118 | 0.0 | 0.0 | 0.00 | 0.00 | 0.00 | 67 | 1018.9 |
| 20260510031951 | 16 | 118 | 0.0 | 0.0 | 0.00 | 0.00 | 0.00 | 67 | 1018.9 |
| 20260510031447 | 16 | 116 | 0.0 | 0.0 | 0.00 | 0.00 | 0.00 | 66 | 1018.9 |
| 20260510030943 | 16 | 103 | 0.0 | 0.0 | 0.00 | 0.00 | 0.00 | 65 | 1018.9 |
| 20260510030438 | 16 | 103 | 0.0 | 0.0 | 0.00 | 0.00 | 0.00 | 66 | 1018.9 |
| 20260510025936 | 16 | 103 | 0.0 | 0.0 | 0.00 | 0.00 | 0.00 | 64 | 1018.5 |
| 20260510025433 | 16 | 113 | 0.0 | 0.0 | 0.00 | 0.00 | 0.00 | 64 | 1018.9 |
| 20260510024930 | 16 | 116 | 0.0 | 0.0 | 0.00 | 0.00 | 0.00 | 64 | 1018.9 |
| 20260510024427 | 16 | 124 | 0.0 | 3.2 | 0.00 | 0.00 | 0.00 | 64 | 1018.9 |
| 20260510023923 | 16 | 130 | 0.0 | 1.6 | 0.00 | 0.00 | 0.00 | 62 | 1018.9 |
| 20260510023419 | 16 | 181 | 0.0 | 1.6 | 0.00 | 0.00 | 0.00 | 64 | 1018.9 |
| 20260510022917 | 16 | 186 | 3.2 | 4.8 | 0.00 | 0.00 | 0.00 | 63 | 1018.9 |
| 20260510022415 | 16 | 172 | 1.6 | 3.2 | 0.00 | 0.00 | 0.00 | 64 | 1019.2 |
| 20260510021914 | 16 | 117 | 0.0 | 3.2 | 0.00 | 0.00 | 0.00 | 64 | 1019.2 |
| 20260510021413 | 17 | 116 | 1.6 | 1.6 | 0.00 | 0.00 | 0.00 | 63 | 1018.9 |
| 20260510020909 | 17 | 160 | 1.6 | 1.6 | 0.00 | 0.00 | 0.00 | 62 | 1018.9 |
| 20260510020404 | 17 | 129 | 0.0 | 3.2 | 0.00 | 0.00 | 0.00 | 61 | 1019.2 |
| 20260510015900 | 17 | 130 | 0.0 | 1.6 | 0.00 | 0.00 | 0.00 | 61 | 1019.2 |
| 20260510015356 | 17 | 119 | 0.0 | 3.2 | 0.00 | 0.00 | 0.00 | 61 | 1019.2 |
| 20260510014851 | 17 | 100 | 1.6 | 1.6 | 0.00 | 0.00 | 0.00 | 61 | 1019.6 |
| 20260510014349 | 17 | 128 | 0.0 | 0.0 | 0.00 | 0.00 | 0.00 | 57 | 1019.6 |
| 20260510013845 | 17 | 118 | 0.0 | 0.0 | 0.00 | 0.00 | 0.00 | 59 | 1019.6 |
| 20260510013340 | 18 | 111 | 1.6 | 1.6 | 0.00 | 0.00 | 0.00 | 57 | 1019.6 |
| 20260510012836 | 18 | 162 | 1.6 | 3.2 | 0.00 | 0.00 | 0.00 | 55 | 1019.9 |
| 20260510012335 | 18 | 127 | 0.0 | 0.0 | 0.00 | 0.00 | 0.00 | 59 | 1019.9 |
| 20260510011831 | 17 | 122 | 0.0 | 0.0 | 0.00 | 0.00 | 0.00 | 60 | 1020.2 |
| 20260510011326 | 17 | 132 | 0.0 | 1.6 | 0.00 | 0.00 | 0.00 | 59 | 1020.2 |
| 20260510010823 | 17 | 122 | 0.0 | 0.0 | 0.00 | 0.00 | 0.00 | 59 | 1020.2 |
| 20260510010320 | 17 | 156 | 0.0 | 1.6 | 0.00 | 0.00 | 0.00 | 60 | 1020.2 |
| 20260510005817 | 17 | 146 | 0.0 | 4.8 | 0.00 | 0.00 | 0.00 | 61 | 1020.2 |
| 20260510005313 | 17 | 181 | 1.6 | 3.2 | 0.00 | 0.00 | 0.00 | 60 | 1020.2 |
| 20260510004811 | 16 | 133 | 0.0 | 3.2 | 0.00 | 0.00 | 0.00 | 62 | 1020.2 |
| 20260510004308 | 17 | 71 | 1.6 | 3.2 | 0.00 | 0.00 | 0.00 | 61 | 1020.2 |
| 20260510003805 | 17 | 224 | 1.6 | 1.6 | 0.00 | 0.00 | 0.00 | 62 | 1020.2 |
| 20260510003302 | 16 | 66 | 1.6 | 3.2 | 0.00 | 0.00 | 0.00 | 61 | 1020.6 |
| 20260510002801 | 16 | 211 | 1.6 | 3.2 | 0.00 | 0.00 | 0.00 | 62 | 1020.6 |
| 20260510002259 | 17 | 156 | 0.0 | 1.6 | 0.00 | 0.00 | 0.00 | 61 | 1020.6 |
| 20260510001755 | 17 | 206 | 1.6 | 1.6 | 0.00 | 0.00 | 0.00 | 61 | 1020.6 |
| 20260510001253 | 17 | 121 | 1.6 | 1.6 | 0.00 | 0.00 | 0.00 | 60 | 1020.6 |
| 20260510000748 | 17 | 121 | 0.0 | 1.6 | 0.00 | 0.00 | 0.00 | 59 | 1020.6 |
| 20260510000248 | 17 | 110 | 0.0 | 1.6 | 0.00 | 0.00 | 0.00 | 61 | 1020.6 |
| 20260509235744 | 17 | 150 | 1.6 | 1.6 | 0.00 | 0.00 | 0.00 | 61 | 1020.9 |
| 20260509235240 | 17 | 296 | 3.2 | 3.2 | 0.00 | 0.00 | 0.00 | 60 | 1020.9 |
| 20260509234735 | 17 | 87 | 3.2 | 3.2 | 0.00 | 0.00 | 0.00 | 61 | 1020.9 |
| 20260509234227 | 17 | 105 | 0.0 | 1.6 | 0.00 | 0.00 | 0.00 | 61 | 1020.9 |
| 20260509233725 | 17 | 88 | 1.6 | 3.2 | 0.00 | 0.00 | 0.00 | 61 | 1021.3 |
| 20260509233223 | 16 | 93 | 1.6 | 3.2 | 0.00 | 0.00 | 0.00 | 62 | 1020.9 |
| 20260509232718 | 16 | 124 | 1.6 | 6.4 | 0.00 | 0.00 | 0.00 | 62 | 1021.3 |
| 20260509232216 | 17 | 61 | 3.2 | 3.2 | 0.00 | 0.00 | 0.00 | 60 | 1021.3 |
| 20260509231712 | 17 | 264 | 1.6 | 6.4 | 0.00 | 0.00 | 0.00 | 60 | 1021.3 |
| 20260509231209 | 18 | 111 | 0.0 | 0.0 | 0.00 | 0.00 | 0.00 | 58 | 1021.3 |
| 20260509230706 | 17 | 109 | 1.6 | 4.8 | 0.00 | 0.00 | 0.00 | 60 | 1021.3 |
| 20260509230157 | 17 | 331 | 1.6 | 4.8 | 0.00 | 0.00 | 0.00 | 63 | 1021.3 |
| 20260509225653 | 17 | 81 | 1.6 | 3.2 | 0.00 | 0.00 | 0.00 | 64 | 1021.3 |
| 20260509225149 | 17 | 340 | 3.2 | 4.8 | 0.00 | 0.00 | 0.00 | 63 | 1021.6 |
| 20260509224645 | 16 | 43 | 1.6 | 3.2 | 0.00 | 0.00 | 0.00 | 65 | 1021.6 |
| 20260509224142 | 16 | 99 | 1.6 | 3.2 | 0.00 | 0.00 | 0.00 | 65 | 1021.6 |
| 20260509223639 | 17 | 6 | 3.2 | 6.4 | 0.00 | 0.00 | 0.00 | 64 | 1021.6 |
| 20260509223136 | 16 | 113 | 0.0 | 3.2 | 0.00 | 0.00 | 0.00 | 68 | 1021.9 |
| 20260509222633 | 16 | 106 | 0.0 | 3.2 | 0.00 | 0.00 | 0.00 | 69 | 1021.9 |
| 20260509222128 | 16 | 89 | 1.6 | 4.8 | 0.00 | 0.00 | 0.00 | 68 | 1022.3 |
| 20260509221624 | 16 | 8 | 3.2 | 4.8 | 0.00 | 0.00 | 0.00 | 67 | 1022.3 |
| 20260509221120 | 16 | 63 | 0.0 | 4.8 | 0.00 | 0.00 | 0.00 | 68 | 1022.3 |
| 20260509220616 | 16 | 100 | 3.2 | 6.4 | 0.00 | 0.00 | 0.00 | 69 | 1022.3 |
| 20260509220113 | 15 | 54 | 3.2 | 9.7 | 0.00 | 0.00 | 0.00 | 70 | 1022.3 |
| 20260509215609 | 16 | 88 | 1.6 | 4.8 | 0.00 | 0.00 | 0.00 | 68 | 1022.3 |
| 20260509215106 | 16 | 273 | 3.2 | 4.8 | 0.00 | 0.00 | 0.00 | 68 | 1022.3 |
| 20260509214603 | 16 | 30 | 1.6 | 4.8 | 0.00 | 0.00 | 0.00 | 68 | 1022.3 |
| 20260509214100 | 17 | 57 | 3.2 | 4.8 | 0.00 | 0.00 | 0.00 | 66 | 1022.3 |
| 20260509213555 | 16 | 346 | 3.2 | 11.3 | 0.00 | 0.00 | 0.00 | 67 | 1022.3 |
| 20260509213052 | 17 | 307 | 3.2 | 3.2 | 0.00 | 0.00 | 0.00 | 63 | 1022.3 |
| 20260509212550 | 17 | 89 | 1.6 | 3.2 | 0.00 | 0.00 | 0.00 | 66 | 1022.3 |
| 20260509212046 | 16 | 312 | 3.2 | 4.8 | 0.00 | 0.00 | 0.00 | 67 | 1022.6 |
| 20260509211542 | 16 | 119 | 3.2 | 11.3 | 0.00 | 0.00 | 0.00 | 68 | 1022.6 |
| 20260509211039 | 16 | 152 | 3.2 | 4.8 | 0.00 | 0.00 | 0.00 | 69 | 1022.6 |
| 20260509210535 | 16 | 107 | 0.0 | 4.8 | 0.00 | 0.00 | 0.00 | 67 | 1022.6 |
| 20260509210031 | 16 | 99 | 1.6 | 4.8 | 0.00 | 0.00 | 0.00 | 68 | 1022.6 |
| 20260509205526 | 16 | 16 | 3.2 | 4.8 | 0.00 | 0.00 | 0.00 | 67 | 1022.9 |
| 20260509205022 | 16 | 102 | 1.6 | 6.4 | 0.00 | 0.00 | 0.00 | 68 | 1022.9 |
| 20260509204519 | 16 | 174 | 0.0 | 9.7 | 0.00 | 0.00 | 0.00 | 68 | 1022.6 |
| 20260509204015 | 16 | 40 | 3.2 | 6.4 | 0.00 | 0.00 | 0.00 | 67 | 1022.9 |
| 20260509203511 | 16 | 71 | 3.2 | 4.8 | 0.00 | 0.00 | 0.00 | 66 | 1022.9 |
| 20260509203009 | 17 | 54 | 1.6 | 3.2 | 0.00 | 0.00 | 0.00 | 65 | 1022.6 |
| 20260509202503 | 17 | 88 | 3.2 | 6.4 | 0.00 | 0.00 | 0.00 | 64 | 1022.9 |
| 20260509201959 | 17 | 47 | 3.2 | 3.2 | 0.00 | 0.00 | 0.00 | 63 | 1022.6 |
| 20260509201454 | 17 | 69 | 1.6 | 4.8 | 0.00 | 0.00 | 0.00 | 65 | 1022.6 |
| 20260509200952 | 17 | 76 | 3.2 | 3.2 | 0.00 | 0.00 | 0.00 | 65 | 1022.6 |
| 20260509200447 | 17 | 42 | 3.2 | 4.8 | 0.00 | 0.00 | 0.00 | 63 | 1022.9 |
| 20260509195943 | 17 | 112 | 1.6 | 3.2 | 0.00 | 0.00 | 0.00 | 66 | 1022.9 |
| 20260509195439 | 17 | 50 | 0.0 | 1.6 | 0.00 | 0.00 | 0.00 | 65 | 1022.9 |